This is the latest recevied weather packets stored in our database for station/object KD8FRE. If no packets are shown the sender has not sent any weather packets the latest 1 day(s).
| Time | Temp. | Humidity | Pressure | Rain* | Wind** | Luminosity | Snow |
|---|---|---|---|---|---|---|---|
| 1778068643 | 6.11° C | 70% | 1011.2 hPa | 0 mm | - | 62 W/m² | - |
| 1778068341 | 6.67° C | 70% | 1010.9 hPa | 0 mm | - | 55 W/m² | - |
| 1778067434 | 6.11° C | 68% | 1010.7 hPa | 0 mm | - | 57 W/m² | - |
| 1778065315 | 6.11° C | 68% | 1010.3 hPa | 0 mm | - | 12 W/m² | - |
| 1778064708 | 6.11° C | 66% | 1010 hPa | 0 mm | - | 8 W/m² | - |
| 1778062893 | 6.67° C | 64% | 1010.1 hPa | 0 mm | - | 1 W/m² | - |
| 1778062286 | 6.67° C | 61% | 1009.9 hPa | 0 mm | - | 0 W/m² | - |
| 1778061985 | 7.22° C | 61% | 1009.9 hPa | 0 mm | - | 0 W/m² | - |
| 1778061381 | 7.22° C | 60% | 1009.5 hPa | 0 mm | - | 0 W/m² | - |
| 1778060775 | 7.22° C | 60% | 1009.3 hPa | 0 mm | - | 0 W/m² | - |
| 1778059261 | 7.22° C | 59% | 1009.3 hPa | 0 mm | - | 0 W/m² | - |
| 1778058355 | 7.22° C | 58% | 1009.4 hPa | 0 mm | - | 0 W/m² | - |
| 1778058051 | 7.78° C | 59% | 1009.2 hPa | 0 mm | - | 0 W/m² | - |
| 1778057748 | 7.78° C | 59% | 1009.2 hPa | 0 mm | - | 0 W/m² | - |
| 1778056837 | 7.78° C | 58% | 1009.2 hPa | 0 mm | - | 0 W/m² | - |
| 1778056535 | 7.78° C | 58% | 1009.1 hPa | 0 mm | - | 0 W/m² | - |
| 1778055929 | 7.78° C | 58% | 1009.2 hPa | 0 mm | - | 0 W/m² | - |
| 1778055624 | 7.78° C | 59% | 1009.1 hPa | 0 mm | - | 0 W/m² | - |
| 1778055323 | 7.78° C | 58% | 1009.2 hPa | 0 mm | - | 0 W/m² | - |
| 1778055020 | 7.78° C | 58% | 1009.1 hPa | 0 mm | - | 0 W/m² | - |
| 1778054415 | 7.78° C | 58% | 1009.5 hPa | 0 mm | - | 0 W/m² | - |
| 1778053506 | 7.78° C | 57% | 1009.3 hPa | 0 mm | - | 0 W/m² | - |
| 1778052901 | 7.78° C | 57% | 1009.2 hPa | 0 mm | - | 0 W/m² | - |
| 1778052598 | 8.33° C | 57% | 1009.1 hPa | 0 mm | - | 0 W/m² | - |
| 1778052295 | 8.33° C | 56% | 1009 hPa | 0 mm | - | 0 W/m² | - |
* Rain latest hour (hover to see other rain measurements)
** Current wind speed in m/s (hover to see current wind gust speed)